Simultaneous Nadir Overpasses (SNOs) Predictions

Prediction of SNOs between METOP-A and TERRA Satellite Orbit:

Table of predicted SNOs for the next 14.0 days since TLE Epoch: 11/27/2021
Index Date (METOP-A) Time (METOP-A) Lat,Lon (METOP-A) SZA (METOP-A ) Date (TERRA) Time (TERRA) Lat,Lon (TERRA) SZA (TERRA ) Distance(km) Time Diff (sec)
1 11/28/2021 06:48:48 81.23, 121.70 105.20 11/28/2021 06:47:37 81.22, 121.78 105.18 1.43 71
2 11/28/2021 08:27:22 81.23, 96.98 105.21 11/28/2021 08:26:30 81.22, 97.05 105.19 1.39 52
3 11/28/2021 09:16:54 -81.23, -95.48 74.80 11/28/2021 09:15:57 -81.22, -95.43 74.83 2.30 57
4 11/28/2021 10:05:56 81.23, 72.26 105.21 11/28/2021 10:05:23 81.22, 72.32 105.20 1.50 33
5 11/28/2021 10:55:27 -81.23,-119.90 74.77 11/28/2021 10:54:49 -81.24,-119.79 74.77 2.41 38
6 11/28/2021 11:44:30 81.24, 47.55 105.22 11/28/2021 11:44:16 81.22, 47.59 105.21 1.73 14
7 11/28/2021 12:34:01 -81.23,-144.72 74.77 11/28/2021 12:33:43 -81.21,-144.88 74.81 3.45 18
8 11/28/2021 13:23:04 81.24, 22.83 105.22 11/28/2021 13:23:09 81.22, 22.86 105.22 2.05 5
9 11/28/2021 14:12:34 -81.22,-169.14 74.75 11/28/2021 14:12:35 -81.24,-169.24 74.75 2.34 1
10 11/28/2021 15:01:37 81.23, -1.51 105.26 11/28/2021 15:02:01 81.24, -1.49 105.28 1.93 24
11 11/28/2021 15:51:08 -81.23, 166.05 74.75 11/28/2021 15:51:28 -81.24, 166.03 74.74 0.66 20
12 11/28/2021 16:40:11 81.23, -26.23 105.26 11/28/2021 16:40:54 81.24, -26.22 105.29 1.49 43
13 11/28/2021 17:29:42 -81.24, 141.23 74.75 11/28/2021 17:30:21 -81.24, 141.30 74.73 1.26 39
14 11/28/2021 18:18:45 81.23, -50.95 105.27 11/28/2021 18:19:47 81.24, -50.95 105.30 1.06 62



Historial Predications of SNOs between METOP-A and TERRA
